Tracking 31027 objects as of 19-Jul-2025
HD Live streaming from Space Station
objects crossing your sky now

NOAA 17 DEB

Track NOAA 17 DEB now!
10-day predictions


NORAD ID: 48167
Int'l Code: 2002-032H
Perigee: 681.4 km
Apogee: 723.1 km
Inclination: 98.7 °
Period: 98.7 minutes
Semi major axis: 7073 km
RCS: Unknown
Launch date: June 24, 2002
Source: United States (US)
Launch site: AIR FORCE WESTERN TEST RANGE (AFWTR)

Note: This is SATELLITE DEBRIS
Your satellite tracking list
IRIDIUM 135
Track 1 satellite(s)




NASA's NSSDC Master Catalog

Two Line Element Set (TLE):
1 48167U 02032H   25199.89453013  .00009821  00000-0  20694-2 0  9995
2 48167  98.7129 183.2339 0029434  47.8079 312.5611 14.59403788227795
Source of the keplerian elements: AFSPC